Weather in Tarasivka

Ukraine / Zaporizhia Region     47°25′07″N   36°06′54″E
temp.,
°C
wind,
m/s
gust,
m/s
humid.,
%
clouds,
%
prec.,
mm/h
press.,
hPa
HPBL,
m
21 june, mon
mon2100:00+20e22830 0.0 101120
03:00+19e22800 0.0 101125
06:00+20ese36830 0.0 1011161
09:00+24ese46610 0.0 1012493
12:00+28ese55540 0.0 1012989
15:00+29ese77436 0.0 10121224
18:00+28e510543 0.5 10121258
21:00+23ne497285 0.5 1011155
22 june, tue
tue2200:00+21ene51466100 0.0 1010301
03:00+22e6135496 0.0 1010306
06:00+20e512655 0.0 1011242
09:00+24ese711503 0.0 1012473
12:00+29ese710370 0.0 10121055
15:00+30e710340 0.0 10121495
18:00+29ese47502 0.0 1012710
21:00+24ne3465100 0.0 101248
23 june, wed
wed2300:00+22ene41170100 0.0 1011229
03:00+20e4975100 0.0 1011158
06:00+21ese41078100 0.0 1012263
09:00+26se575947 0.0 1013592
12:00+30se4548100 0.0 10131149
15:00+32se244462 0.0 10131776
18:00+32ene234546 0.0 10132051
21:00+25ene34661 0.0 101346
24 june, thu
thu2400:00+23nne387412 0.0 1013130
03:00+21ne368195 0.0 1012109
06:00+21ne4880100 0.0 1012190
09:00+26e5670100 0.0 1013577
12:00+30se6655100 0.0 10131178
15:00+30se7754100 0.0 10141525
18:00+25ese478199 1.1 1015198
21:00+23ese33836 1.2 101537
25 june, fri
fri2500:00+21nnw118577 0.1 101411
03:00+20nnw33856 0.1 101436
06:00+20n36776 0.0 1013116
09:00+26ene455752 0.0 1012415
12:00+31e453933 0.0 10121280
15:00+32e443739 0.0 10111704
18:00+31e3549100 0.0 1011260
21:00+23s487672 0.0 1012152